Location: Dortmund
(51.5019°N, 7.6520°E)
Time: 09:04:13
(UTC+02:00)

ISS - Pass Details

Date: 25 March 2019
Orbit: 408 x 410 km, 51.6° (Epoch: 21 April)

Event Time Altitude Azimuth Distance (km) Brightness Sun altitude
Rises 21:48:48 0° 269° (W) 2,336 0.7 -26.0°
Reaches altitude 10° 21:50:53 10° 270° (W) 1,475 -0.4 -26.2°
Enters shadow 21:51:50 18° 270° (W) 1,095 -1.2 -26.3°
